Torna al catalogo

SL-14 DEB

AttivoPO
NORAD 19175·DEBRIS·🇷🇺 Russia

Lanciato Oct 26, 1978 da Plesetsk Cosmodrome

Loading…

Prossimi Passaggi (prossime 24 ore)

TLE

AggiornatoSource: Space-Track

Epoca: Sep 14, 2026, 15:56 UTC

1 19175U 78100S   26257.66391404  .00003073  00000-0  43669-2 0  9997
2 19175  82.3469 144.0294 0277678 278.3880  95.6923 13.41734445772774

Traccia SL-14 DEB in tempo reale con AllMySat

Download on the App Store